Bradshaw AFB, HI

2:12 PM HST on November 20, 2019 (GMT -1000)
Bradshaw Army Air Field

Weather History for PHSF - September, 2019

Change the Weather History Date:

Tuesday, September 3, 2019

  Actual Average Record
Temperature  
Mean Temperature 62 °F -  
Max Temperature 75 °F 70 °F 77 °F (1997)
Min Temperature 49 °F 51 °F 43 °F (2013)
Degree Days  
Heating Degree Days 3    
Growing Degree Days 12 (Base 50)    
Moisture  
Dew Point 55 °F    
Average Humidity 83    
Maximum Humidity 100    
Minimum Humidity 41    
Precipitation  
Precipitation 0.00 in - - ()
Sea Level Pressure  
Sea Level Pressure 29.97 in    
Wind  
Wind Speed 5 mph (SSW)    
Max Wind Speed 13 mph    
Max Gust Speed 18 mph    
Visibility 9 miles    
Events Rain    
Averages and records for this station are not official NWS values.
T = Trace of Precipitation, MM = Missing Value Source: NWS Daily Summary

Daily Weather History Graph

Daily Weather History Graph

Search for Another Location

Airport or City:

Astronomy

Sep. 03, 2019 Rise Set
Actual Time 6:07 AM HST 6:35 PM HST
Civil Twilight 5:44 AM HST 6:57 PM HST
Nautical Twilight 5:18 AM HST 7:23 PM HST
Astronomical Twilight 4:52 AM HST 7:49 PM HST
Moon 10:34 AM HST (9/3) 10:21 PM HST (9/3)
Length of Visible Light 13h 12m
Length of Day
12h 28m
Waxing Crescent, 27% of the Moon is Illuminated
Sep 3
Waxing Crescent
Sep 5
First Quarter
Sep 13
Full
Sep 21
Last Quarter
Sep 28
New

Hourly Weather History & Observations

Time (HST) Temp. Dew Point Humidity Pressure Visibility Wind Dir Wind Speed Gust Speed Precip Events Conditions
12:56 AM 51.8 °F 42.8 °F 71% 29.92 in 10.0 mi SE 5.8 mph - N/A   Scattered Clouds
1:56 AM 54.0 °F 46.6 °F 76% 29.91 in 10.0 mi SE 4.6 mph - N/A   Mostly Cloudy
2:56 AM 51.3 °F 45.9 °F 82% 29.94 in 10.0 mi SE 3.5 mph - N/A   Clear
3:56 AM 50.4 °F 47.5 °F 90% 29.96 in 10.0 mi South 3.5 mph - N/A   Clear
4:56 AM 50.5 °F 46.4 °F 86% 29.97 in 10.0 mi SE 4.6 mph - N/A   Clear
5:56 AM 49.5 °F 46.2 °F 89% 29.98 in 10.0 mi SE 4.6 mph - N/A   Clear
6:56 AM 56.1 °F 48.6 °F 76% 29.99 in 10.0 mi Calm Calm - N/A   Clear
7:56 AM 63.5 °F 49.1 °F 59% 29.99 in 10.0 mi SE 5.8 mph - N/A   Clear
8:56 AM 68.7 °F 48.6 °F 49% 29.99 in 10.0 mi SSW 3.5 mph - N/A   Partly Cloudy
9:56 AM 72.0 °F 47.1 °F 41% 29.97 in 10.0 mi SW 4.6 mph - N/A   Clear
10:56 AM 72.7 °F 53.4 °F 51% 29.96 in 10.0 mi WSW 6.9 mph - N/A   Partly Cloudy
11:56 AM 75.2 °F 57.4 °F 54% 29.95 in 10.0 mi WSW 12.7 mph 18.4 mph N/A   Clear
12:56 PM 72.1 °F 57.6 °F 60% 29.94 in 10.0 mi WSW 11.5 mph 18.4 mph N/A   Partly Cloudy
1:56 PM 72.9 °F 56.7 °F 57% 29.91 in 10.0 mi WSW 11.5 mph - N/A   Scattered Clouds
2:56 PM 67.8 °F 58.1 °F 71% 29.95 in 10.0 mi WSW 6.9 mph 17.3 mph N/A   Mostly Cloudy
3:11 PM 66.2 °F 57.2 °F 73% 29.95 in 10.0 mi WSW 3.5 mph - N/A Rain Light Rain
3:21 PM 62.6 °F 59.0 °F 88% 29.97 in 1.5 mi SSW 5.8 mph - N/A Rain Heavy Rain Showers
3:26 PM 60.8 °F 60.8 °F 100% 29.98 in 1.0 mi SW 5.8 mph - N/A Rain Heavy Rain Showers
3:31 PM 60.8 °F 60.8 °F 100% 29.98 in 1.4 mi SSW 4.6 mph - N/A Rain Heavy Rain Showers
3:36 PM 62.6 °F 60.8 °F 94% 29.97 in 4.0 mi SW 3.5 mph - N/A Rain Heavy Rain Showers
4:09 PM - - N/A% - - WSW 4.6 mph - N/A   Unknown
4:29 PM 60.8 °F 60.8 °F 100% 29.98 in 10.0 mi WSW 5.8 mph - N/A   Mostly Cloudy
4:56 PM 61.9 °F 61.2 °F 97% 29.97 in 10.0 mi WSW 5.8 mph - N/A   Mostly Cloudy
5:16 PM 62.6 °F 60.8 °F 94% 29.99 in 10.0 mi WSW 4.6 mph - N/A   Mostly Cloudy
5:41 PM 60.8 °F 60.8 °F 100% 30.00 in 10.0 mi WSW 4.6 mph - N/A   Mostly Cloudy
5:51 PM 60.8 °F 60.8 °F 100% 30.00 in 10.0 mi WSW 3.5 mph - N/A   Mostly Cloudy
5:56 PM 60.8 °F 60.1 °F 97% 30.00 in 10.0 mi WSW 3.5 mph - N/A   Mostly Cloudy
6:06 PM 60.8 °F 60.8 °F 100% 30.01 in 10.0 mi WSW 3.5 mph - N/A   Mostly Cloudy
6:16 PM 60.8 °F 59.0 °F 94% 30.01 in 10.0 mi SW 3.5 mph - N/A   Mostly Cloudy
6:21 PM 60.8 °F 59.0 °F 94% 30.01 in 10.0 mi WSW 3.5 mph - N/A   Mostly Cloudy
6:31 PM 60.8 °F 59.0 °F 94% 30.01 in 10.0 mi Calm Calm - N/A   Mostly Cloudy
6:46 PM 60.8 °F 59.0 °F 94% 30.01 in 10.0 mi Calm Calm - N/A   Mostly Cloudy
6:56 PM 60.1 °F 59.2 °F 97% 30.00 in 10.0 mi Calm Calm - N/A   Overcast
7:56 PM 58.6 °F 57.0 °F 94% 30.00 in 10.0 mi SW 3.5 mph - N/A   Mostly Cloudy
8:56 PM 58.1 °F 56.7 °F 95% 29.98 in 10.0 mi Calm Calm - N/A   Mostly Cloudy
9:56 PM 54.9 °F 53.2 °F 94% 29.99 in 10.0 mi ESE 3.5 mph - N/A   Clear
10:56 PM 54.7 °F 52.7 °F 93% 29.97 in 10.0 mi ESE 4.6 mph - N/A   Clear
11:56 PM 54.0 °F 49.1 °F 84% 29.96 in 10.0 mi ESE 3.5 mph - N/A   Partly Cloudy